Location: Bremen
(53.0793°N, 8.8017°E)
Time: 22:52:08
(UTC+02:00)

Vanguard 2 Rocket - Pass Details

Date: 20 April 2024
Orbit: 556 x 3304 km, 32.9° (Epoch: 20 May)

Event Time Altitude Azimuth Distance (km) Brightness Sun altitude
Rises 00:45:39 0° 244° (WSW) 6,796 11.2 -24.8°
Reaches altitude 10° 00:50:22 10° 237° (WSW) 6,003 10.8 -24.9°
Maximum altitude 01:07:24 39° 178° (S) 4,275 9.7 -25.2°
Drops below altitude 10° 01:23:10 10° 119° (ESE) 5,575 10.6 -25.3°
Sets 01:27:20 0° 112° (ESE) 6,286 11.0 -25.3°
